Other Public Products
Issued by NWS Grand Forks, ND

Home | Current Version | Previous Version | Text Only | Print | Product List | Glossary Off
Versions: 1 2 3 4 5 6 7 8 9 10 11 12 13 14 15 16 17 18 19 20 21 22 23 24 25 26 27 28 29 30 31 32 33 34 35 36 37 38 39 40 41 42 43 44 45 46 47 48 49 50

000
FPUS83 KFGF 161310
OPUFGF
PRAIRIE TO PINES WEATHER ROUNDUP
NATIONAL WEATHER SERVICE EASTERN NORTH DAKOTA/GRAND FORKS ND
700 AM CST SAT DEC 16 2017

 **SATELLITE DATA USED TO AUGMENT SKY COVER AT AUTOMATED STATIONS**
 *****  WEATHER ACROSS EASTERN NORTH DAKOTA  *****

CITY           SKY/WX    TMP DP  RH WIND       PRES   REMARKS
GRAND FORKS    CLOUDY    21  18  88 E3        29.76R
GRND FORKS AFB CLOUDY    19  18  93 CALM      29.76R
GRND FORKS NWS   N/A     21 N/A N/A SE3         N/A
BUXTON         NOT AVBL
DEVILS LAKE    CLOUDY    25  24  96 S3        29.72R
FARGO          CLOUDY    26  23  88 CALM      29.74R
WAHPETON ARPT  PTSUNNY   27  23  86 E3        29.75R
$$

 *****  WEATHER ACROSS CENTRAL AND WESTERN NORTH DAKOTA  *****

CITY           SKY/WX    TMP DP  RH WIND       PRES   REMARKS
JAMESTOWN      CLOUDY    32  31  96 S3        29.72R
BISMARCK       CLOUDY    36  33  89 NW6       29.80R
MINOT          MOCLDY    36  31  82 W13       29.75R
MINOT AFB      FAIR      31  28  88 W8        29.74R WCI  23
GARRISON         N/A     33  30  88 NW10      29.77R WCI  25
WILLISTON      PTCLDY    30  23  74 NW6       29.84R WCI  24
DICKINSON      MOCLDY    30  27  88 W9        29.81R WCI  22
HETTINGER      FAIR      27  25  92 NW7       29.84R WCI  19
$$

 *****  OTHER OBSERVATIONS NORTHEAST NORTH DAKOTA  *****

CITY           SKY/WX    TMP DP  RH WIND       PRES   REMARKS
WALHALLA       FAIR      18  18 100 CALM      29.76R
LANGDON        CLOUDY    19  19 100 S7        29.70R WCI  10
CAVALIER       CLOUDY    18  18 100 SE6       29.76R WCI   9
GRAFTON        CLOUDY    18  18 100 E8        29.79R WCI   7
CANDO          CLOUDY    25  25 100 CALM      29.74R
FORT TOTTEN      N/A     27  27  99 CALM      29.95S
ROLLA          CLOUDY    32  32 100 NW16      29.69R WCI  21
RUGBY          CLOUDY    32  32 100 NW7       29.72R
 ***** THE ABOVE OBSERVATIONS ARE NON NWS ARE NOT QUALITY
        CONTROLLED AND MAY MIS-REPORT RAIN FOR SNOW...
$$

 *****  OTHER OBSERVATIONS SOUTHEAST NORTH DAKOTA *****

CITY           SKY/WX    TMP DP  RH WIND       PRES   REMARKS
COOPERSTOWN    CLOUDY    25  25 100 E3        29.73R FOG
VALLEY CITY    FOG       25  25 100 CALM      29.75R VSB 1/4
OAKES            N/A     34  34 100 W7        29.74R
GWINNER          N/A     27  27 100 NW8       29.72R FOG     WCI  18
BUFFALO        NOT AVBL
WYNDMERE       NOT AVBL
 ***** THE ABOVE OBSERVATIONS ARE NON NWS ARE NOT QUALITY
       CONTROLLED AND MAY MIS-REPORT RAIN FOR SNOW...
$$

  *****  WEATHER ACROSS NORTHERN MINNESOTA  *****

CITY           SKY/WX    TMP DP  RH WIND       PRES   REMARKS
FLAG ISLAND    FLURRIES   1  -2  85 E3        29.84R
WARROAD        FLURRIES   7   3  85 E12       29.82R WCI  -9
ROSEAU         CLOUDY    10   5  79 E13       29.79F WCI  -5
HALLOCK        CLOUDY    16  12  86 E8        29.77R WCI   5
THF RVR FALLS  FLURRIES  16  12  84 E8        29.78R WCI   5
HALSTAD        NOT AVBL
FOSSTON        CLOUDY    18  16  93 SE7       29.73F WCI   8
BAUDETTE       CLOUDY     5   1  83 E8        29.82R WCI  -8
WASKISH        MOCLDY    10   7  85 E8        29.79S WCI  -1
CROOKSTON      CLOUDY    21  18  86 E3        29.77R
$$
  *****  WEATHER ACROSS CENTRAL AND WEST MINNESOTA  *****

CITY           SKY/WX    TMP DP  RH WIND       PRES   REMARKS
BEMIDJI        CLOUDY    15  12  87 E7        29.76R WCI   5
PARK RAPIDS    LGT SNOW  19  15  84 E7        29.73R FOG     WCI  10
WADENA         CLOUDY    19  18  93 E8        29.73R WCI   9
DETROIT LAKES  CLOUDY    23  21  93 SE7       29.75R WCI  15
MOORHEAD       CLOUDY    25  21  86 CALM      29.75R
FERGUS FALLS   MOCLDY    23  21  93 E6        29.76R WCI  16
ELBOW LAKE     CLOUDY    25  24  96 SE9       29.73R FOG     WCI  15
MORRIS MN      CLOUDY    27  25  93 E6        29.72R FOG     WCI  20
STAPLES        CLOUDY    19  16  86 E7        29.74R WCI  10
WHEATON        CLOUDY    27  25  93 CALM      29.75R
$$
  *****  WEATHER ELSEWHERE ACROSS MINNESOTA  *****

CITY           SKY/WX    TMP DP  RH WIND       PRES   REMARKS
DULUTH         CLOUDY    17  13  84 SE18      29.80R WCI   1
INTRNTL FALLS  FAIR       0  -5  79 E9        29.86R WCI -15
ELY            CLOUDY     1  -2  85 CALM      29.84R
CLOQUET        CLOUDY    16   9  73 E9        29.80S WCI   4
BRAINERD       CLOUDY    20  14  77 E6        29.77R WCI  12
HIBBING        CLOUDY    12   9  87 E6        29.80R WCI   3
ALEXANDRIA     CLOUDY    23  21  92 E12       29.73R FOG     WCI  12
SAINT CLOUD    CLOUDY    21  19  92 NE6       29.77R WCI  13
MINNEAPOLIS    MOCLDY    26  24  92 NE7       29.75R WCI  18
$$

  *****  WEATHER ACROSS SOUTH DAKOTA  *****

CITY           SKY/WX    TMP DP  RH WIND       PRES   REMARKS
SIOUX FALLS    FAIR      32  25  75 CALM      29.74R
BROOKINGS      FAIR      28  24  85 W7        29.74R WCI  21
WATERTOWN      MOCLDY    33  28  81 NW10      29.72R WCI  25
HURON          FAIR      29  25  85 NW8       29.77R WCI  21
SISSETON         N/A     34  30  85 NW8       29.73R
ABERDEEN       MIX PCPN  35  33  92 W6        29.77R
MITCHELL       FAIR      32  25  75 NW7       29.77R
PIERRE         FAIR      34  26  72 NW13      29.78R WCI  25
MOBRIDGE       CLOUDY    39  33  79 NW10      29.76R
RAPID CITY     FAIR      36  22  56 N25G33    29.84R
$$

  *****  SOME WEATHER IN NEARBY STATES *****

CITY           SKY/WX    TMP DP  RH WIND       PRES   REMARKS
GLASGOW MT     FAIR      24  23  96 W9        29.91R WCI  14
GREAT FALLS MT CLOUDY    29  25  85 CALM      29.93R
CHEYENNE WY    CLOUDY    42   4  20 E6        29.80R
SCOTTSBLUFF NE FAIR      37  11  34 N8        29.81R
OMAHA NE       FAIR      32  20  61 SE5       29.77R
DES MOINES IA  FAIR      35  24  64 SW8       29.78R
DAVENPORT IA   FAIR      34  24  67 S10       29.82R
CHICAGO IL     MOCLDY    36  24  62 SW10      29.85R
EAU CLAIRE WI  CLOUDY    22  18  85 NE12      29.79R WCI  10
LA CROSSE WI   MOCLDY    28  26  92 N3        29.77R
$$

  *****  SOME NATIONAL WEATHER *****

CITY           SKY/WX    TMP DP  RH WIND       PRES   REMARKS
LA GUARDIA NY  FAIR      29  16  58 SW16      30.04R WCI  17
RALEIGH NC     FAIR      25  20  81 CALM      30.25R
ATLANTA GA     FAIR      27  24  89 W7        30.26R WCI  19
NEW ORLEANS LA MOCLDY    46  35  65 NE8       30.27S
OKLAHOMA CITY  FAIR      35  24  64 S12       30.01R
ALBUQUERQUE NM FAIR      26  14  60 E6        29.96F WCI  19
SALT LAKE CITY MOCLDY    31  28  89 CALM      29.89R FOG
LOS ANGELES CA CLOUDY    56  45  66 SE14      29.72F
BOISE ID       CLOUDY    24  22  91 NW3       30.09S FOG
SEATTLE WA     MOCLDY    38  37  97 SE6       30.29S
$$

*** WEATHER ACROSS MANITOBA...SASKATCHEWAN AND ONTARIO ***
                ***ONTARIO***

CITY           SKY/WX    TMP DP  RH WIND       PRES   REMARKS
GERALDTON      PTCLDY   -31 -36  75 SW3       30.01R
THUNDER BAY    PTCLDY   -13 -17  84 SW2       30.03R
SIOUX LOOKOUT  MOCLDY   -15 -18  84 E3        29.94S
TORONTO        CLOUDY    23  16  74 SW14      29.90R WCI  11
BIG TROUT LK   CLEAR    -22 -27  76 W2        30.03R
PICKLE LAKE    CLEAR    -27 -33  75 SW2       29.99R
DRYDEN         CLOUDY   -11 -17  77 NE5       29.90R WCI -23
KENORA         CLOUDY    -4  -8  84 E10       29.85R WCI -21
$$
                *** MANITOBA***

CITY           SKY/WX    TMP DP  RH WIND       PRES   REMARKS
BRANDON        CLOUDY    16  12  86 VRB2      29.73R
DAUPHIN        CLOUDY    14  10  85 S3        29.75R
ISLAND LAKE    PTCLDY   -18 -24  76 SE9       29.99  WCI -38
PILOT MOUND      N/A     19  19 100 S6          N/A  WCI  11
THE PAS        FLURRIES   5   0  78 SE7       29.75R WCI  -7
THOMPSON       CLOUDY   -11 -17  77 VRB2      29.87F
WINNIPEG       NOT AVBL
LYNN LAKE      CLOUDY    -8 -11  84 S6        29.74S WCI -21
CHURCHILL      CLEAR    -27 -33  75 SW6       30.00S WCI -44
GILLAM         PTCLDY   -26 -33  68 S3        29.99S
$$
                ***SASKATCHEWAN***

CITY           SKY/WX    TMP DP  RH WIND       PRES   REMARKS
ESTEVAN        CLOUDY    30  27  86 W10       29.78R WCI  21
KINDERSLEY     CLEAR     21  14  73 W10       29.84R WCI  10
LLOYDMINSTER   MOCLDY    25  19  80 W16G23    29.73S WCI  12
PRINCE ALBERT  PTCLDY     3  -2  78 SW3       29.68R
REGINA         CLEAR     25  23  93 W15       29.78R WCI  12
YORKTON        CLOUDY    27  25  93 NW3       29.71R
N. BATTLEFORD  CLEAR     25  18  74 W10       29.76R WC



USA.gov is the U.S. government's official web portal to all federal, state and local government web resources and services.